Location: Armstrong Village
(14.3346°N, 120.9854°E)
Time: 03:00:51
(UTC+00:00)

Cosmos 2082 Rocket - Pass Details

Date: 13 January 2026
Orbit: 831 x 853 km, 71.0° (Epoch: 16 February)

Event Time Altitude Azimuth Distance (km) Brightness Sun altitude
Rises 11:36:39 0° 178° (S) 3,366 5.5 -26.3°
Reaches altitude 10° 11:39:15 10° 170° (S) 2,431 4.6 -26.9°
Enters shadow 11:41:14 21° 157° (SSE) 1,792 3.8 -27.3°
